Regional Weather Roundup
Issued by NWS

Home | Current Version | Previous Version | Text Only | Print | Product List | Glossary On
Versions: 1 2 3 4 5 6 7 8 9 10 11 12 13 14 15 16 17 18 19 20 21 22 23 24 25 26 27 28 29 30 31 32 33 34 35 36 37 38 39 40 41 42 43 44 45 46 47 48
000
ASUS45 KBOI 202010
RWRID
WEATHER ROUNDUP FOR IDAHO
NATIONAL WEATHER SERVICE BOISE ID
200 PM MDT SAT SEP 20 2014

NOTE: "FAIR" INDICATES FEW OR NO CLOUDS BELOW 12000 FEET
WITH NO SIGNIFICANT WEATHER AND/OR OBSTRUCTIONS TO VISIBILITY

IDZ012-014-202100-
SOUTHWEST IDAHO


CITY           SKY/WX    TMP DP  RH WIND       PRES   REMARKS
BOISE          SUNNY     82  43  25 E3G16     30.10F
CALDWELL       SUNNY     79  46  31 CALM      30.12F
MOUNTAIN HOME  SUNNY     78  44  29 VRB3      30.12F
$$

IDZ016-017-202100-
SOUTHCENTRAL IDAHO


CITY           SKY/WX    TMP DP  RH WIND       PRES   REMARKS
BURLEY         SUNNY     76  44  32 VRB5      30.17F
JEROME         SUNNY     76  45  33 CALM      30.18F
TWIN FALLS     SUNNY     79  47  32 NE7       30.18F
$$

IDZ019>023-202100-
SOUTHEAST IDAHO


CITY           SKY/WX    TMP DP  RH WIND       PRES   REMARKS
IDAHO FALLS    SUNNY     78  42  27 VRB3      30.22F
POCATELLO      SUNNY     76  44  32 VRB3      30.21F
REXBURG        SUNNY     75  39  27 VRB3      30.24F
$$

IDZ006-010-011-018-031-032-202100-
CENTRAL IDAHO MOUNTAINS


CITY           SKY/WX    TMP DP  RH WIND       PRES   REMARKS
MCCALL         SUNNY     75  42  30 VRB3      30.20F
HAILEY         SUNNY     75  46  35 SE8       30.25F
STANLEY          N/A     76  38  25 N7        30.28F
SALMON         SUNNY     72  45  37 CALM      30.18F
CHALLIS        SUNNY     74  40  29 VRB5      30.22F
$$

IDZ002-004-006-007-026-202100-
NORTHERN IDAHO


CITY           SKY/WX    TMP DP  RH WIND       PRES   REMARKS
LEWISTON       SUNNY     79  49  34 VRB3      30.09F
LOWELL           N/A     80  49  33 CALM      30.08F
COEUR D`ALENE  SUNNY     77  48  36 N9        30.16F
MULLAN PASS    SUNNY     62  41  46 VRB3      30.32F
$$



USA.gov is the U.S. government's official web portal to all federal, state and local government web resources and services.